Appleton, MN

11:13 AM CST on November 12, 2019 (GMT -0600)
Appleton Municipal

Weather History for KAQP - August, 2019

Change the Weather History Date:

Saturday, August 17, 2019

  Actual Average Record
Temperature  
Mean Temperature 72 °F -  
Max Temperature 84 °F 77 °F 96 °F (2003)
Min Temperature 59 °F 55 °F 42 °F (2012)
Cooling Degree Days 6    
Growing Degree Days 22 (Base 50)    
Moisture  
Dew Point 61 °F    
Average Humidity 72    
Maximum Humidity 94    
Minimum Humidity 45    
Precipitation  
Precipitation 0.00 in - - ()
Sea Level Pressure  
Sea Level Pressure 29.75 in    
Wind  
Wind Speed 3 mph (SSE)    
Max Wind Speed 31 mph    
Max Gust Speed 38 mph    
Visibility 10 miles    
Events Rain , Thunderstorm    
Averages and records for this station are not official NWS values.
T = Trace of Precipitation, MM = Missing Value Source: NWS Daily Summary

Daily Weather History Graph

Daily Weather History Graph

Search for Another Location

Airport or City:

Astronomy

Aug. 17, 2019 Rise Set
Actual Time 6:27 AM CDT 8:27 PM CDT
Civil Twilight 5:55 AM CDT 8:59 PM CDT
Nautical Twilight 5:16 AM CDT 9:38 PM CDT
Astronomical Twilight 4:32 AM CDT 10:21 PM CDT
Moon 9:51 PM CDT (8/17) 8:20 AM CDT (8/17)
Length of Visible Light 15h 04m
Length of Day
14h 00m
Waning Gibbous, 96% of the Moon is Illuminated
Aug 17
Waning Gibbous
Aug 23
Last Quarter
Aug 30
New
Sep 5
First Quarter
Sep 13
Full

Hourly Weather History & Observations

Time (CDT) Temp. Heat Index Dew Point Humidity Pressure Visibility Wind Dir Wind Speed Gust Speed Precip Events Conditions
12:13 AM 66.2 °F - 59.0 °F 78% 29.83 in 10.0 mi Calm Calm - N/A   Scattered Clouds
12:33 AM 66.2 °F - 60.8 °F 83% 29.84 in 10.0 mi Calm Calm - N/A   Scattered Clouds
12:51 AM 68.0 °F - 60.8 °F 78% 29.84 in 10.0 mi Calm Calm - N/A   Scattered Clouds
1:11 AM 69.8 °F - 60.8 °F 73% 29.83 in 10.0 mi Calm Calm - N/A   Scattered Clouds
1:30 AM 69.8 °F - 60.8 °F 73% 29.83 in 10.0 mi Calm Calm - N/A   Scattered Clouds
1:53 AM 68.0 °F - 60.8 °F 78% 29.82 in 10.0 mi Calm Calm - N/A   Clear
2:11 AM 66.2 °F - 60.8 °F 83% 29.81 in 10.0 mi Calm Calm - N/A   Clear
2:32 AM 66.2 °F - 60.8 °F 83% 29.80 in 10.0 mi Calm Calm - N/A   Clear
2:51 AM 64.4 °F - 60.8 °F 88% 29.79 in 10.0 mi Calm Calm - N/A   Clear
3:11 AM 64.4 °F - 60.8 °F 88% 29.78 in 10.0 mi Calm Calm - N/A   Clear
3:31 AM 62.6 °F - 59.0 °F 88% 29.77 in 10.0 mi Calm Calm - N/A   Clear
3:51 AM 62.6 °F - 59.0 °F 88% 29.76 in 10.0 mi Calm Calm - N/A   Clear
4:11 AM 60.8 °F - 57.2 °F 88% 29.75 in 10.0 mi Calm Calm - N/A   Clear
4:30 AM 60.8 °F - 57.2 °F 88% 29.73 in 7.0 mi Calm Calm - N/A   Clear
4:52 AM 59.0 °F - 55.4 °F 88% 29.73 in 7.0 mi Calm Calm - N/A   Clear
5:14 AM 60.8 °F - 57.2 °F 88% 29.75 in 7.0 mi Calm Calm - N/A   Clear
5:31 AM 60.8 °F - 57.2 °F 88% 29.76 in 10.0 mi Calm Calm - N/A   Clear
5:51 AM 60.8 °F - 57.2 °F 88% 29.78 in 10.0 mi Calm Calm - N/A   Clear
6:12 AM 62.6 °F - 59.0 °F 88% 29.80 in 10.0 mi Calm Calm - N/A   Clear
6:36 AM 62.6 °F - 59.0 °F 88% 29.81 in 10.0 mi Calm Calm - N/A   Clear
6:51 AM 62.6 °F - 59.0 °F 88% 29.80 in 10.0 mi Calm Calm - N/A   Clear
7:11 AM 62.6 °F - 59.0 °F 88% 29.80 in 10.0 mi Calm Calm - N/A   Clear
7:33 AM 64.4 °F - 60.8 °F 88% 29.79 in 10.0 mi Calm Calm - N/A   Clear
7:51 AM 64.4 °F - 60.8 °F 88% 29.79 in 10.0 mi Calm Calm - N/A   Clear
8:13 AM 66.2 °F - 60.8 °F 83% 29.80 in 10.0 mi Calm Calm - N/A   Clear
8:31 AM 68.0 °F - 60.8 °F 78% 29.79 in 10.0 mi Calm Calm - N/A   Clear
9:31 AM 71.6 °F - 60.8 °F 69% 29.78 in 10.0 mi South 8.1 mph - N/A   Clear
9:54 AM 73.4 °F - 62.6 °F 69% 29.78 in 10.0 mi South 6.9 mph - N/A   Clear
10:11 AM 73.4 °F - 62.6 °F 69% 29.77 in 10.0 mi South 6.9 mph - N/A   Clear
10:31 AM 75.2 °F - 62.6 °F 65% 29.77 in 10.0 mi South 8.1 mph - N/A   Clear
10:54 AM 75.2 °F - 62.6 °F 65% 29.78 in 10.0 mi South 10.4 mph - N/A   Clear
11:11 AM 78.8 °F - 60.8 °F 54% 29.78 in 10.0 mi South 11.5 mph 16.1 mph N/A   Clear
11:31 AM 78.8 °F - 60.8 °F 54% 29.77 in 10.0 mi SSW 9.2 mph - N/A   Clear
11:51 AM 78.8 °F - 60.8 °F 54% 29.77 in 10.0 mi South 8.1 mph 16.1 mph N/A   Clear
12:11 PM 80.6 °F 81.5 °F 60.8 °F 51% 29.76 in 7.0 mi SSW 10.4 mph - N/A   Clear
12:31 PM 80.6 °F 81.5 °F 60.8 °F 51% 29.76 in 10.0 mi South 9.2 mph - N/A   Clear
12:53 PM 80.6 °F 81.5 °F 60.8 °F 51% 29.75 in 10.0 mi South 6.9 mph - N/A   Clear
1:11 PM 82.4 °F 82.9 °F 60.8 °F 48% 29.75 in 10.0 mi South 10.4 mph - N/A   Clear
1:31 PM 82.4 °F 82.9 °F 60.8 °F 48% 29.75 in 10.0 mi SW 8.1 mph - N/A   Clear
1:51 PM 82.4 °F 82.9 °F 60.8 °F 48% 29.74 in 10.0 mi South 6.9 mph - N/A   Clear
2:11 PM 82.4 °F 82.9 °F 60.8 °F 48% 29.74 in 10.0 mi South 5.8 mph - N/A   Clear
2:31 PM 82.4 °F 83.4 °F 62.6 °F 51% 29.73 in 10.0 mi Calm Calm - N/A   Clear
2:52 PM 82.4 °F 82.9 °F 60.8 °F 48% 29.72 in 10.0 mi SSE 8.1 mph - N/A   Clear
3:13 PM 84.2 °F 85.0 °F 62.6 °F 48% 29.72 in 10.0 mi South 6.9 mph - N/A   Clear
3:31 PM 84.2 °F 84.4 °F 60.8 °F 45% 29.72 in 10.0 mi SSE 8.1 mph - N/A   Clear
3:51 PM 84.2 °F 84.4 °F 60.8 °F 45% 29.71 in 10.0 mi SE 11.5 mph - N/A   Clear
4:11 PM 84.2 °F 84.4 °F 60.8 °F 45% 29.71 in 10.0 mi South 9.2 mph - N/A   Clear
4:34 PM 84.2 °F 85.0 °F 62.6 °F 48% 29.69 in 10.0 mi SSE 6.9 mph - N/A   Clear
4:54 PM 84.2 °F 84.4 °F 60.8 °F 45% 29.68 in 10.0 mi SSE 9.2 mph - N/A   Clear
5:11 PM 84.2 °F 85.0 °F 62.6 °F 48% 29.66 in 10.0 mi SSE 10.4 mph - N/A   Clear
6:31 PM 80.6 °F 81.8 °F 62.6 °F 54% 29.67 in 10.0 mi SE 8.1 mph - N/A   Clear
6:53 PM 78.8 °F - 64.4 °F 61% 29.65 in 10.0 mi SE 8.1 mph - N/A   Clear
7:10 PM 78.8 °F - 64.4 °F 61% 29.66 in 10.0 mi SE 8.1 mph - N/A Thunderstorm Thunderstorm
7:33 PM 77.0 °F - 64.4 °F 65% 29.65 in 10.0 mi ESE 8.1 mph - N/A Thunderstorm Clear
7:51 PM 77.0 °F - 66.2 °F 69% 29.66 in 10.0 mi East 10.4 mph - N/A Thunderstorm Thunderstorm
8:14 PM 69.8 °F - 60.8 °F 73% 29.65 in 10.0 mi North 31.1 mph 38.0 mph N/A Rain , Thunderstorm Light Thunderstorms and Rain
8:33 PM 66.2 °F - 62.6 °F 88% 29.70 in 7.0 mi North 15.0 mph 25.3 mph N/A Rain , Thunderstorm Thunderstorms and Rain
8:51 PM 66.2 °F - 62.6 °F 88% 29.72 in 10.0 mi SSE 6.9 mph - N/A Rain , Thunderstorm Light Thunderstorms and Rain
9:51 PM 64.4 °F - 62.6 °F 94% 29.74 in 10.0 mi East 6.9 mph - N/A Rain , Thunderstorm Rain
10:15 PM 64.4 °F - 62.6 °F 94% 29.69 in 10.0 mi ENE 8.1 mph - N/A Rain Light Rain
10:31 PM 64.4 °F - 62.6 °F 94% 29.67 in 10.0 mi NE 9.2 mph - N/A Rain Light Rain
10:52 PM 64.4 °F - 60.8 °F 88% 29.68 in 10.0 mi NE 8.1 mph - N/A Rain , Thunderstorm Light Thunderstorms and Rain
11:10 PM 64.4 °F - 60.8 °F 88% 29.70 in 10.0 mi ESE 6.9 mph - N/A Rain Light Rain
11:30 PM 64.4 °F - 60.8 °F 88% 29.73 in 10.0 mi Calm Calm - N/A Rain Light Rain
11:52 PM 64.4 °F - 60.8 °F 88% 29.76 in 10.0 mi WNW 4.6 mph - N/A Rain Rain